Location: Bassano
(45.7667°N, 11.7333°E)
Time: 17:02:14
(UTC+00:00)

ISS - Pass Details

Date: 13 March 2021
Orbit: 418 x 421 km, 51.6° (Epoch: 21 April)

Event Time Altitude Azimuth Distance (km) Brightness Sun altitude
Exits shadow 04:02:41 19° 198° (SSW) 1,047 -2.0 -15.9°
Drops below altitude 10° 04:04:24 10° 170° (S) 1,490 -1.0 -15.6°
Sets 04:06:47 0° 155° (SSE) 2,349 0.2 -15.2°
